Weather History for Hayward, WI

Change the Weather History Date:

Monday, January 23, 2012

  Actual Average Record
Temperature  
Mean Temperature 23 °F -  
Max Temperature 25 °F 26 °F 33 °F (2006)
Min Temperature 21 °F 6 °F -26 °F (2011)
Degree Days  
Heating Degree Days 42    
Moisture  
Dew Point 20 °F    
Average Humidity 84    
Maximum Humidity 91    
Minimum Humidity 80    
Precipitation  
Precipitation 0.25 in - - ()
Sea Level Pressure  
Sea Level Pressure 29.55 in    
Wind  
Wind Speed 3 mph (WNW)    
Max Wind Speed 9 mph    
Max Gust Speed 18 mph    
Visibility 3 miles    
Events Fog , Snow    
Averages and records for this station are not official NWS values.
T = Trace of Precipitation, MM = Missing Value Source: NWS Daily Summary

Daily Weather History Graph

Daily Weather History Graph

Search for Another Location

Airport:

Trip Planner

Search our weather history database for the weather conditions in past years. The results will help you decide how hot, cold, wet, or windy it might be!

Date:

Astronomy

Jan. 23, 2012 Rise Set
Actual Time 7:38 AM CST 4:57 PM CST
Civil Twilight 7:05 AM CST 5:30 PM CST
Nautical Twilight 6:28 AM CST 6:06 PM CST
Astronomical Twilight 5:53 AM CST 6:42 PM CST
Moon 7:30 AM CST (1/23) 5:50 PM CST (1/23)
Length of Visible Light 10h 24m
Length of Day
9h 19m
Waxing Crescent, 0% of the Moon is Illuminated
Jan 23
Waxing Crescent
Jan 30
First Quarter
Feb 7
Full
Feb 14
Last Quarter
Feb 21
New

Hourly Weather History & Observations

Time (CST) Temp. Windchill Dew Point Humidity Pressure Visibility Wind Dir Wind Speed Gust Speed Precip Events Conditions
12:53 AM 24.1 °F - 21.0 °F 88% 29.57 in 4.0 mi Calm Calm - N/A   Overcast
1:53 AM 24.1 °F - 21.9 °F 91% 29.57 in 4.0 mi Calm Calm - N/A   Overcast
2:29 AM 24.8 °F 20.5 °F 21.2 °F 86% 29.48 in 4.0 mi Variable 3.5 mph - N/A   Overcast
2:53 AM 24.1 °F - 21.0 °F 88% 29.53 in 4.0 mi Calm Calm - N/A   Overcast
3:53 AM 24.1 °F 17.0 °F 21.0 °F 88% 29.49 in 7.0 mi Variable 5.8 mph - N/A   Overcast
4:45 AM 24.8 °F - 21.2 °F 86% 29.43 in 2.5 mi Calm Calm - 0.00 in Snow Light Snow
4:53 AM 24.1 °F - 21.0 °F 88% 29.49 in 2.5 mi Calm Calm - 0.00 in Snow Light Snow
5:03 AM 24.8 °F - 21.2 °F 86% 29.44 in 3.0 mi Calm Calm - 0.00 in Snow Light Snow
5:38 AM 24.8 °F - 19.4 °F 80% 29.43 in 2.0 mi Calm Calm - 0.00 in Snow Light Snow
5:53 AM 24.1 °F - 21.0 °F 88% 29.50 in 1.8 mi Calm Calm - 0.01 in Snow Light Snow
6:15 AM 24.8 °F - 21.2 °F 86% 29.44 in 1.0 mi Calm Calm - 0.01 in Snow Light Snow
6:27 AM 24.8 °F - 21.2 °F 86% 29.45 in 1.2 mi Calm Calm - 0.02 in Snow Light Snow
7:18 AM 24.8 °F 20.5 °F 19.4 °F 80% 29.44 in 2.5 mi NW 3.5 mph - 0.01 in Snow Light Snow
7:31 AM 23.0 °F 17.0 °F 19.4 °F 86% 29.44 in 4.0 mi Variable 4.6 mph - 0.01 in Snow Light Snow
7:53 AM 24.1 °F 19.7 °F 19.9 °F 84% 29.50 in 3.0 mi Variable 3.5 mph - 0.01 in Snow Light Snow
8:01 AM 24.8 °F 20.5 °F 19.4 °F 80% 29.44 in 2.0 mi Variable 3.5 mph - 0.00 in Snow Light Snow
8:09 AM 24.8 °F 19.1 °F 21.2 °F 86% 29.44 in 1.2 mi Variable 4.6 mph - 0.00 in Snow Light Snow
8:13 AM 24.8 °F 20.5 °F 19.4 °F 80% 29.45 in 0.8 mi Variable 3.5 mph - 0.00 in Snow Light Snow
8:33 AM 24.8 °F 19.1 °F 21.2 °F 86% 29.45 in 0.8 mi Variable 4.6 mph - 0.00 in Snow Light Snow
8:53 AM 24.1 °F 19.7 °F 19.9 °F 84% 29.51 in 0.5 mi Variable 3.5 mph - 0.01 in Fog , Snow Snow
9:08 AM 23.0 °F 18.4 °F 19.4 °F 86% 29.45 in 0.2 mi Variable 3.5 mph - 0.02 in Fog , Snow Snow
9:53 AM 23.0 °F 17.0 °F 19.9 °F 88% 29.52 in 0.2 mi Variable 4.6 mph - 0.07 in Fog , Snow Snow
10:53 AM 23.0 °F 17.0 °F 19.0 °F 85% 29.52 in 0.5 mi WNW 4.6 mph - 0.06 in Fog , Snow Light Snow
11:53 AM 23.0 °F 15.8 °F 19.0 °F 85% 29.51 in 0.5 mi Variable 5.8 mph - 0.02 in Fog , Snow Snow
12:43 PM 24.8 °F 17.9 °F 19.4 °F 80% 29.45 in 1.2 mi WNW 5.8 mph - 0.01 in Snow Light Snow
12:53 PM 24.1 °F 19.7 °F 19.0 °F 81% 29.51 in 1.8 mi Variable 3.5 mph - 0.01 in Snow Light Snow
1:07 PM 24.8 °F 17.9 °F 19.4 °F 80% 29.46 in 0.8 mi WNW 5.8 mph - 0.00 in Snow Light Snow
1:53 PM 24.1 °F 17.0 °F 19.9 °F 84% 29.53 in 0.8 mi West 5.8 mph - 0.01 in Snow Light Snow
2:27 PM 24.8 °F 17.9 °F 21.2 °F 86% 29.49 in 0.5 mi Variable 5.8 mph - 0.02 in Fog , Snow Light Snow
2:53 PM 25.0 °F 20.7 °F 21.0 °F 85% 29.56 in 0.5 mi Variable 3.5 mph - 0.03 in Fog , Snow Light Snow
3:22 PM 24.8 °F 17.9 °F 19.4 °F 80% 29.52 in 1.0 mi WNW 5.8 mph - 0.01 in Snow Light Snow
3:26 PM 24.8 °F 19.1 °F 19.4 °F 80% 29.52 in 1.2 mi Variable 4.6 mph - 0.01 in Snow Light Snow
3:37 PM 24.8 °F 16.9 °F 19.4 °F 80% 29.53 in 3.0 mi WNW 6.9 mph - 0.02 in Snow Light Snow
3:45 PM 24.8 °F 19.1 °F 19.4 °F 80% 29.53 in 3.0 mi Variable 4.6 mph - 0.02 in Snow Light Snow
3:53 PM 24.1 °F 18.2 °F 19.0 °F 81% 29.59 in 1.8 mi Variable 4.6 mph - 0.02 in Snow Light Snow
4:13 PM 24.8 °F 17.9 °F 19.4 °F 80% 29.55 in 2.0 mi Variable 5.8 mph - 0.00 in Snow Light Snow
4:43 PM 24.8 °F 17.9 °F 19.4 °F 80% 29.57 in 1.5 mi Variable 5.8 mph - 0.00 in Snow Light Snow
4:53 PM 24.1 °F 18.2 °F 19.9 °F 84% 29.63 in 1.2 mi Variable 4.6 mph - 0.00 in Snow Light Snow
5:02 PM 24.8 °F 16.9 °F 19.4 °F 80% 29.58 in 1.0 mi Variable 6.9 mph - 0.00 in Snow Light Snow
5:19 PM 24.8 °F - 19.4 °F 80% 29.59 in 1.5 mi Calm Calm - 0.00 in Snow Light Snow
5:34 PM 24.8 °F 16.1 °F 19.4 °F 80% 29.60 in 2.0 mi WNW 8.1 mph - 0.00 in Snow Light Snow
5:53 PM 24.1 °F 14.4 °F 19.9 °F 84% 29.67 in 2.5 mi WNW 9.2 mph - 0.00 in Snow Light Snow
5:55 PM 24.8 °F 16.9 °F 19.4 °F 80% 29.61 in 3.0 mi Variable 6.9 mph - 0.00 in Snow Light Snow
6:03 PM 23.0 °F 15.8 °F 19.4 °F 86% 29.62 in 3.0 mi Variable 5.8 mph - 0.00 in Snow Light Snow
6:10 PM 23.0 °F 15.8 °F 19.4 °F 86% 29.63 in 2.0 mi Variable 5.8 mph - 0.00 in Snow Light Snow
6:19 PM 23.0 °F 15.8 °F 19.4 °F 86% 29.64 in 2.5 mi Variable 5.8 mph - 0.00 in Snow Light Snow
6:25 PM 23.0 °F 13.9 °F 19.4 °F 86% 29.64 in 3.0 mi WNW 8.1 mph - 0.00 in Snow Light Snow
6:53 PM 23.0 °F 13.9 °F 18.0 °F 81% 29.71 in 10.0 mi NW 8.1 mph 18.4 mph 0.00 in   Overcast
7:53 PM 23.0 °F 15.8 °F 18.0 °F 81% 29.75 in 10.0 mi Variable 5.8 mph - N/A   Overcast
8:53 PM 23.0 °F 15.8 °F 18.0 °F 81% 29.77 in 10.0 mi Variable 5.8 mph - N/A   Overcast
9:53 PM 21.9 °F 14.5 °F 18.0 °F 85% 29.80 in 10.0 mi Variable 5.8 mph - N/A   Overcast
10:53 PM 21.9 °F 11.7 °F 17.1 °F 82% 29.83 in 10.0 mi WNW 9.2 mph - N/A   Overcast
11:53 PM 21.0 °F 12.4 °F 16.0 °F 81% 29.86 in 10.0 mi Variable 6.9 mph - N/A   Overcast